Presure
139 116 156 116 144 104 135 145 101 110 137 118 104 92 109 148 134 122 109 87 94 144 108 110 89 114 126 103 112 118 124 104 109 129 116 133 130 135 133 122 141 137 133
133 153 94 154 153 148 129 136 144 140 147 144 108 89 98 92 111 152 109 90 132 159 134 104 100 106 136 105 122 112 108 92 97 122 125 138 142 148 145 146 91 147 151
115 144 83 160 150 151 151 144 141 136 141 141 143 141 138 124 157 145 108 91 101 156 90 95 107 97 96 117 101 104 113 100 116 124 136 151 149 138 139 149 78 153 153
89 95 157 120 152 90 125 153 129 114 140 148 141 147 108 88 88 89 131 114 141 161 154 91 117 107 93 97 102 110 131 111 124 128 132 128 153 146 156 127 116 149 159
143 94 110 77 134 152 154 143 155 90 134 93 132 143 92 95 152 160 97 147 94 92 90 112 109 154 89 95 101 138 137 121 143 145 131 141 96 150 151 141 159 138 162
81 135 83 87 84 154 89 98 89 89 90 88 111 91 144 142 103 151 158 94 92 91 135 95 94 104 146 145 159 166 163 141 160 156 137 135 154 148 156 165 128 150 129
138 132 94 85 105 95 98 93 155 158 89 122 121 93 94 87 126 148 88 104 112 89 130 92 127 92 142 145 136 105 104 114 141 113 147 72 128 135 130 138 130 127 130
147 167 132 159 90 97 101 95 96 127 94 133 89 91 90 83 90 94 91 93 99 94 95 94 141 91 111 100 120 101 105 121 133 76 125 77 86 135 115 155 150 145 162
139 168 144 140 164 89 90 95 87 96 88 93 93 94 95 86 96 91 127 91 107 126 95 101 123 139 97 105 123 75 140 140 91 114 77 152 96 154 151 159 130 137 152
133 141 142 188 136 132 148 147 170 160 95 104 105 89 95 90 146 149 111 88 95 103 99 94 102 97 95 139 151 144 75 75 77 141 78 78 86 151 137 134 145 147 153
114 143 146 98 167 121 160 147 124 167 160 134 89 97 87 98 97 138 98 103 94 104 104 107 112 111 105 129 150 74 151 77 145 136 98 77 158 131 152 145 145 141 153
145 154 182 179 132 163 133 135 155 157 129 166 159 136 140 129 109 100 100 106 97 108 112 115 133 134 128 131 77 124 72 150 77 141 154 152 131 139 139 142 149 151 170
144 136 182 169 127 131 152 101 80 149 174 161 177 132 158 96 96 95 88 160 122 115 142 167 134 83 137 130 86 131 78 110 89 97 129 146 146 143 153 166 163 168 174
139 159 127 183 163 141 129 160 187 153 133 126 160 132 101 169 153 166 166 157 166 161 181 158 81 160 77 75 152 76 139 163 169 158 151 152 168 165 154 162 158 154 132
144 143 142 156 134 180 134 142 116 188 188 150 146 140 171 177 177 138 130 156 166 145 147 171 167 122 76 132 141 143 174 171 154 149 181 173 172 164 156 150 150 137 157
142 141 136 165 163 121 138 107 154 144 188 137 145 125 153 174 150 168 171 154 120 109 177 130 107 92 71 72 143 72 166 191 155 165 148 161 144 161 147 163 160 151 188
140 110 85 160 157 159 149 124 138 140 178 172 188 163 130 153 173 169 180 149 123 74 142 104 169 191 75 82 159 165 119 124 168 123 179 142 147 158 163 149 178 172 180
147 117 151 150 154 159 147 153 146 137 158 109 171 157 128 128 186 181 163 186 165 165 178 190 157 124 155 173 145 161 148 158 185 157 165 144 153 157 167 173 165 160 137
140 155 156 154 142 149 158 163 161 158 166 145 167 100 112 109 104 112 119 89 95 151 159 125 165 172 166 163 175 174 193 188 192 139 169 152 151 168 175 152 154 170 163
181 154 153 166 157 155 154 153 163 189 155 169 163 158 168 169 143 160 124 125 164 135 162 162 163 167 176 155 174 162 189 153 172 139 142 142 158 165 180 163 183 171 169
160 164 190 166 171 161 160 161 165 167 173 177 153 165 123 142 157 163 138 135 159 144 133 159 177 173 137 162 143 166 162 161 175 168 172 165 178 189 144 172 132 157 167
178 178 162 178 161 170 172 177 200 176 179 173 122 142 118 149 159 131 164 169 150 135 171 151 165 171 189 176 143 150 174 167 176 177 188 163 170 170 159 152 178 142 150
194 204 171 187 167 190 162 182 172 118 173 183 167 145 166 144 147 147 166 143 171 152 167 162 170 148 149 175 173 187 157 163 165 163 152 177 154 162 155 167 142 168 159
200 225 196 199 208 186 182 137 186 176 176 170 175 143 149 140 151 180 141 136 145 172 147 153 136 143 191 145 142 142 140 162 176 147 183 190 161 194 144 224 175 166 164
220 199 189 218 145 201 158 181 180 135 189 142 158 189 173 169 160 165 152 167 173 158 162 120 144 123 153 148 162 143 171 172 174 177 145 180 179 166 197 174 158 156 165
199 195 200 210 201 214 170 195 196 203 157 184 160 147 161 168 173 183 186 168 163 161 164 147 162 139 171 139 166 175 158 179 162 212 139 196 183 147 222 200 154 181 209
Wind_Speed
33 27 39 23 36 24 29 32 20 21 27 23 18 11 21 27 23 25 18 13 17 30 17 19 17 21 24 22 22 24 25 27 28 32 32 34 34 35 36 32 35 34 33
35 40 22 40 37 35 29 33 35 32 28 26 23 13 17 13 19 32 20 15 28 34 26 18 21 21 26 24 24 26 26 16 26 32 33 37 36 37 38 38 29 37 36
31 41 20 45 35 36 38 36 34 31 32 32 30 28 25 22 31 30 20 16 20 34 21 21 24 24 25 26 29 31 31 27 32 34 37 37 38 37 38 40 27 38 36
28 30 43 32 36 22 32 39 32 24 35 36 33 30 21 17 18 19 33 25 33 35 35 22 24 25 23 28 31 33 33 33 35 35 36 35 38 39 39 33 31 37 37
41 35 35 15 37 39 40 37 42 19 36 20 35 35 20 21 33 34 20 35 22 23 21 25 28 36 18 27 34 34 33 35 39 38 37 40 29 40 40 36 41 36 37
26 34 28 32 26 46 27 28 25 22 18 19 28 20 37 36 24 36 36 25 25 25 32 27 27 32 35 35 37 38 37 36 38 39 37 37 40 41 42 40 34 37 39
41 40 33 32 38 36 34 31 44 45 24 35 35 23 23 21 34 39 24 30 31 25 33 28 34 22 37 36 31 39 39 25 36 27 40 18 34 38 34 37 37 38 40
39 52 44 46 37 42 40 35 34 41 30 42 24 25 25 20 25 28 29 29 32 32 33 31 38 26 35 37 35 38 42 39 38 24 36 28 37 38 41 44 42 41 46
48 58 50 42 52 36 35 38 29 35 29 32 31 30 31 25 31 28 40 30 37 31 34 36 32 38 35 39 42 15 39 38 29 37 31 45 37 44 44 45 40 42 45
55 52 49 68 50 47 48 47 59 53 37 40 38 32 35 29 49 51 37 27 37 43 39 34 42 36 31 45 45 44 21 25 30 43 35 36 38 45 42 42 47 46 50
45 56 57 36 61 48 60 52 43 62 57 48 31 40 28 39 38 50 38 42 32 48 45 45 46 47 34 45 46 21 48 29 49 46 40 34 48 45 49 48 49 46 52
55 61 65 56 53 60 51 52 56 56 44 61 60 55 53 52 47 42 41 45 41 50 51 49 47 46 47 46 23 44 26 48 34 47 52 49 46 50 49 52 54 55 60
61 53 66 67 53 56 52 37 28 57 66 62 65 46 63 35 40 35 29 61 47 57 52 52 50 24 51 52 31 48 31 39 42 47 46 49 52 53 56 57 54 53 59
67 73 50 72 65 53 56 59 68 59 50 45 64 44 34 71 58 64 65 62 61 55 57 51 24 55 25 28 57 34 53 64 61 58 53 51 57 55 51 54 52 52 49
81 75 70 66 55 79 59 54 51 66 66 60 59 51 74 76 70 55 49 60 65 49 54 58 57 43 30 47 53 52 63 63 57 53 60 58 55 55 53 53 53 50 55
84 78 67 83 77 49 64 46 64 61 65 62 61 49 60 72 59 68 72 58 43 35 63 44 36 37 29 32 53 34 60 60 55 58 51 52 50 55 55 58 58 56 58
90 56 40 83 81 75 61 60 60 62 74 75 73 71 52 63 76 76 79 59 48 27 54 39 67 59 38 44 58 58 51 44 61 46 59 51 55 56 61 57 65 61 65
94 63 86 79 81 77 63 72 63 62 80 44 74 66 55 53 75 77 69 71 63 67 70 70 61 55 62 69 55 59 53 54 67 50 51 55 56 58 63 64 62 59 54
89 96 92 87 74 77 80 84 83 81 80 61 81 44 47 52 44 41 56 34 37 65 63 50 67 66 64 65 72 70 68 70 66 54 55 56 58 64 69 61 61 64 60
98 98 91 98 94 87 84 75 84 76 77 88 82 78 80 68 65 74 49 53 74 49 63 68 67 72 75 53 71 53 76 57 64 54 57 59 60 63 75 64 70 64 63
100 102 105 104 108 97 93 90 87 91 98 93 78 86 61 70 76 79 58 54 73 48 50 63 83 82 56 59 54 62 60 64 67 55 61 61 73 78 58 65 63 59 65
106 105 94 110 100 109 106 109 90 101 96 96 61 70 57 75 80 51 84 82 61 56 79 58 72 79 94 73 57 61 77 65 74 72 77 65 66 64 61 61 71 61 63
111 109 101 102 113 104 86 112 108 67 102 100 93 75 90 76 73 71 81 59 84 75 79 75 77 75 53 86 78 88 59 68 59 71 59 71 63 63 62 66 64 67 68
110 105 107 115 115 124 116 60 114 102 98 96 100 70 79 67 73 92 66 69 67 89 76 67 63 71 93 64 65 68 66 66 64 60 70 74 59 74 65 92 62 62 63
104 109 114 96 63 119 79 116 111 58 118 68 85 109 102 91 78 80 75 83 92 76 79 74 70 75 61 80 61 71 73 62 57 67 65 57 66 57 76 65 59 75 61
107 113 114 98 117 104 78 99 97 110 79 108 87 71 76 92 85 94 98 86 85 82 83 74 82 80 89 76 76 83 78 75 68 106 70 90 75 63 110 97 64 75 102
Wind_Direction
239 245 240 240 247 243 261 256 244 247 262 256 257 252 266 273 275 277 279 317 304 283 289 295 324 299 299 316 314 312 312 321 320 322 323 319 321 318 319 323 320 325 332
237 239 249 239 242 247 254 259 257 261 259 259 259 250 255 264 269 271 267 298 280 280 280 295 309 306 292 316 301 315 315 329 327 318 317 316 316 313 314 317 338 324 326
246 240 262 243 246 247 249 255 257 259 261 259 258 260 264 272 272 273 289 291 295 282 315 311 302 312 318 301 315 315 312 319 313 313 314 309 312 319 320 316 341 322 325
249 249 246 249 251 246 249 251 253 254 265 264 263 265 265 275 283 285 272 283 277 282 281 311 292 303 316 314 311 309 301 307 306 311 315 318 312 314 314 319 325 324 320
240 249 249 262 250 251 251 255 251 239 263 243 264 267 260 259 273 278 284 275 288 294 302 290 300 288 309 314 310 296 296 307 303 303 313 313 324 314 317 322 317 317 319
241 249 253 258 266 248 254 246 251 248 255 250 257 254 263 264 276 272 277 283 288 294 281 298 302 299 290 292 290 293 293 297 298 298 306 314 310 316 314 311 315 319 313
244 249 248 252 256 252 251 251 254 255 252 262 257 257 258 273 265 267 285 280 277 290 280 294 290 294 288 289 294 302 306 301 301 308 306 327 310 310 311 317 309 309 310
245 245 248 250 250 253 250 253 254 252 250 257 260 259 258 269 270 271 277 282 280 283 284 290 282 293 295 299 298 301 302 298 299 317 310 321 316 311 316 313 316 313 318
241 246 245 244 249 253 258 255 260 256 263 263 264 263 261 273 266 270 269 279 277 275 282 283 277 285 291 291 288 309 297 298 307 300 316 306 318 307 310 310 306 309 316
247 243 239 247 241 246 255 256 256 255 257 256 257 268 267 273 265 266 272 278 277 277 279 284 283 286 287 289 292 295 310 314 311 300 312 314 314 309 308 307 309 311 314
250 246 242 252 246 254 253 252 251 255 257 256 262 261 267 266 269 266 273 272 280 274 276 279 277 279 281 287 290 306 293 305 300 296 303 309 303 305 309 308 308 309 311
253 249 244 242 251 250 248 252 253 257 259 256 258 260 262 264 264 271 272 274 276 275 277 281 279 279 281 281 292 284 314 293 306 295 300 300 303 306 306 307 307 310 310
249 260 239 249 251 252 253 256 257 256 253 258 255 259 262 269 269 272 271 268 269 272 275 276 278 280 281 282 299 290 304 300 301 297 298 297 298 300 302 304 307 312 313
266 253 264 244 250 247 253 251 247 260 257 257 262 260 268 261 266 265 265 268 272 277 274 277 272 276 293 300 281 296 289 291 291 293 293 295 299 303 305 304 304 303 299
265 267 265 255 246 249 247 253 255 245 248 253 263 265 258 261 264 266 267 268 271 272 273 280 279 281 289 281 283 286 285 286 291 293 292 293 298 302 300 293 295 299 303
259 262 264 255 255 254 253 254 263 261 242 262 261 258 270 262 268 268 267 272 269 271 276 276 280 282 292 298 280 303 285 284 291 291 297 300 293 302 293 299 302 295 307
256 258 252 256 261 258 257 250 256 257 250 255 247 265 262 268 267 267 266 271 270 286 275 281 277 265 292 284 283 282 292 284 290 287 294 290 290 295 301 295 307 305 311
253 256 258 261 262 260 257 260 257 255 265 256 253 261 260 259 262 263 269 266 272 274 270 264 276 278 281 282 284 285 291 294 287 292 294 288 290 295 301 302 302 298 296
257 254 257 259 260 260 260 258 252 263 256 251 261 262 265 263 268 270 269 271 273 266 275 273 276 274 280 283 285 285 285 285 286 283 293 289 288 299 302 292 297 301 303
231 251 254 251 259 261 259 257 257 243 259 260 262 261 261 258 266 271 264 268 270 268 274 279 282 283 279 283 288 286 288 281 291 285 283 282 289 296 299 295 299 300 303
242 243 227 249 249 255 257 259 254 257 255 253 257 260 261 265 268 269 267 268 272 270 267 281 278 280 278 279 275 287 286 286 292 293 296 292 296 293 284 296 287 299 301
234 234 242 236 254 251 252 250 240 249 248 255 252 259 264 262 266 265 271 270 272 268 275 279 284 274 279 282 271 279 280 280 291 289 293 285 288 290 295 293 297 288 295
223 222 237 237 250 243 245 245 251 251 250 247 257 258 262 259 267 266 266 274 272 270 276 273 282 277 276 277 289 286 275 281 281 282 281 289 289 293 292 291 291 289 291
220 218 225 225 229 240 241 244 242 250 249 252 253 258 260 266 267 260 269 265 276 274 273 281 261 269 282 264 268 276 274 281 278 268 289 296 279 297 285 303 288 288 286
215 218 230 222 257 230 252 242 243 255 247 255 256 250 256 260 265 265 275 271 270 282 284 266 263 273 266 284 279 273 290 286 281 289 263 298 298 280 300 301 282 293 285
219 222 222 222 228 226 249 237 237 235 255 246 257 268 271 259 265 263 263 270 276 280 274 274 283 276 288 272 288 288 282 292 276 292 276 301 303 273 300 305 278 299 310